Flag for Malaysia Weather past 2 weeks in Kuching, Malaysia

Now
88 °F

Broken clouds.


Feels Like: 98 °F
Forecast: 77 / 87 °F
Wind: 3 mph from South

Location: Kuching Airport


UV Index: 3 (Moderate)

Visibility: N/A


Pressure: 29.83 "Hg

Humidity: 66%

Dew point: 75 °F

Location of KuchingLocation

Historic Weather in Kuching

°F

Kuching temperature yesterday

Maximum temperature yesterday: 90 °F (at 11:30 AM)
Minimum temperature yesterday: 77 °F (at 4:30 AM)
Average temperature yesterday: 82 °F

Past Weeks' High & Low Weather Summary

 TemperatureHumidityPressure
High93 °F (Apr 14, 3:00 PM)100% (Apr 4, 8:30 PM)29.92 "Hg (Apr 4, 8:30 PM)
Low73 °F (Apr 9, 2:00 AM)49% (Apr 17, 2:00 PM)29.71 "Hg (Apr 16, 4:30 PM)
Average80 °F86%29.83 "Hg
* Reported Apr 4 12:00 Noon — Apr 19 12:00 Noon, Kuching, Weather by CustomWeather, © 2014

Note: Actual official high and low records may vary slightly from our data, if they occured in-between our weather recording intervals... More about our weather records

Advertising

Historic Weather Conditions — Data for Previous 24 hours

 ConditionsComfort  
Time TempWeatherWind HumidityBarometerVisibility
12:00 PM
Apr 19
88 °FBroken clouds.3 mph70%29.83 "HgN/A
11:30 AM86 °FBroken clouds.5 mph75%29.86 "HgN/A
11:00 AM84 °FBroken clouds.3 mph79%29.86 "HgN/A
10:30 AM81 °FBroken clouds.3 mph89%29.89 "HgN/A
10:00 AM79 °FPartly sunny.2 mph89%29.89 "HgN/A
9:30 AM77 °FLight rain. Broken clouds.1 mph94%29.89 "HgN/A
9:00 AM77 °FLight rain. Broken clouds.1 mph89%29.89 "HgN/A
8:30 AM75 °FBroken clouds.3 mph94%29.86 "HgN/A
8:00 AM75 °FBroken clouds.3 mph94%29.86 "HgN/A
7:30 AM75 °FBroken clouds.1 mph94%29.86 "HgN/A
7:00 AM75 °FBroken clouds.5 mph94%29.86 "HgN/A
6:30 AM73 °FPartly cloudy.6 mph100%29.83 "HgN/A
6:00 AM73 °FLight rain. Partly cloudy.9 mph94%29.83 "Hg5 mi
5:30 AM73 °FLight rain. Partly cloudy.10 mph94%29.86 "Hg4 mi
5:00 AM75 °FHeavy rain. Passing clouds.12 mph89%29.86 "Hg2 mi
4:30 AM77 °FPassing clouds.9 mph89%29.83 "HgN/A
4:00 AM77 °FPartly cloudy.No wind94%29.83 "HgN/A
3:30 AM77 °FPartly cloudy.2 mph94%29.83 "HgN/A
3:00 AM77 °FPartly cloudy.2 mph94%29.83 "HgN/A
2:30 AM77 °FPartly cloudy.1 mph94%29.83 "HgN/A
2:00 AM77 °FPartly cloudy.2 mph94%29.83 "HgN/A
1:30 AM77 °FPartly cloudy.1 mph94%29.83 "HgN/A
1:00 AM77 °FPartly cloudy.2 mph94%29.86 "HgN/A
12:30 AM77 °FPartly cloudy.2 mph94%29.86 "HgN/A
12:00 AM77 °FPartly cloudy.1 mph94%29.86 "HgN/A
11:30 PM
Apr 18
77 °FPartly cloudy.1 mph94%29.86 "HgN/A
11:00 PM77 °FPartly cloudy.No wind94%29.86 "HgN/A
10:30 PM77 °FPartly cloudy.1 mph94%29.86 "HgN/A
10:00 PM77 °FPartly cloudy.3 mph89%29.86 "HgN/A
9:30 PM79 °FPartly cloudy.3 mph84%29.86 "HgN/A
9:00 PM79 °FPartly cloudy.3 mph84%29.83 "HgN/A
8:30 PM79 °FPartly cloudy.1 mph84%29.83 "HgN/A
8:00 PM81 °FPartly cloudy.7 mph74%29.80 "HgN/A
7:30 PM81 °FPartly cloudy.6 mph74%29.80 "HgN/A
7:00 PM81 °FPartly cloudy.8 mph74%29.80 "Hg5 mi
6:30 PM82 °FScattered showers. Broken clouds.7 mph84%29.77 "Hg5 mi
6:00 PM84 °FScattered showers. Broken clouds.8 mph79%29.77 "Hg5 mi
5:30 PM86 °FBroken clouds.9 mph75%29.77 "HgN/A
5:00 PM86 °FBroken clouds.7 mph75%29.74 "HgN/A
4:30 PM82 °FBroken clouds.5 mph89%29.74 "HgN/A
4:00 PM86 °FBroken clouds.7 mph75%29.74 "HgN/A
3:30 PM84 °FThunderstorms. Broken clouds.5 mph84%29.74 "Hg4 mi
3:00 PM84 °FThunderstorms. Broken clouds.8 mph84%29.77 "Hg4 mi
2:30 PM84 °FRain showers. Broken clouds.12 mph84%29.77 "Hg2 mi
2:00 PM90 °FBroken clouds.6 mph71%29.77 "HgN/A
1:30 PM90 °FBroken clouds.6 mph71%29.80 "HgN/A
1:00 PM90 °FBroken clouds.5 mph71%29.80 "HgN/A
Weather by CustomWeather, © 2014

See weather overview